Dewpoint
59 58 59 59 57 57 56 56 57 56 55 56 55 55 55 55 57 56 55 55 53 53 52 52 52 52 52 50 51 51 52 51 51 50 50 50 48 48 48 48 48 49
58 59 59 59 59 59 58 57 56 56 56 56 56 55 56 56 56 55 53 53 54 51 50 49 50 50 50 49 50 50 49 49 50 53 49 48 47 47 47 48 48 48
58 57 58 58 58 59 59 59 58 57 56 56 56 56 56 56 56 54 52 52 50 50 51 51 51 51 50 50 50 50 48 48 48 50 50 47 48 46 47 50 48 48
58 58 58 59 59 59 59 59 58 58 57 57 56 56 57 57 55 53 52 56 50 51 51 49 50 50 51 50 50 49 48 48 49 49 47 47 49 48 47 49 50 47
59 59 59 59 59 59 59 58 58 57 56 56 56 56 57 56 54 52 52 52 51 51 50 50 49 49 50 49 49 48 48 47 47 47 46 46 47 49 48 48 46 45
59 58 58 59 59 58 58 58 58 57 57 58 56 57 56 54 53 52 52 51 50 51 50 49 48 49 49 49 48 49 48 46 46 46 47 46 45 46 48 47 46 45
58 58 59 59 59 59 59 58 58 58 59 58 56 56 55 53 51 51 52 51 50 51 48 48 49 50 49 49 49 47 47 47 46 47 46 46 49 44 47 47 47 45
58 58 58 58 58 58 58 58 59 58 58 58 55 56 55 54 51 51 52 50 50 50 48 49 50 49 49 48 47 47 47 48 48 47 46 45 45 45 46 47 45 45
57 57 57 57 56 56 56 57 58 58 60 57 57 57 56 55 54 53 52 51 50 50 49 49 50 49 49 47 47 46 47 47 48 46 45 44 45 44 44 45 44 45
56 56 56 56 56 56 56 58 58 58 59 59 58 57 57 57 55 56 54 53 52 51 50 49 50 49 47 46 46 47 46 46 47 46 46 46 45 44 45 45 43 43
55 55 55 55 55 55 56 57 57 58 58 59 58 57 57 57 57 57 56 54 52 51 50 50 49 48 46 47 47 45 44 45 46 46 45 45 45 45 50 45 45 43
54 54 54 54 54 54 54 55 57 57 58 58 58 57 57 57 57 56 55 55 51 50 50 49 49 47 46 47 46 45 46 46 47 45 45 44 44 43 45 45 44 44
53 54 54 54 54 54 54 55 56 56 57 57 58 57 57 56 57 57 57 56 53 51 50 49 47 47 47 46 46 46 46 46 46 45 44 44 44 44 44 44 44 45
53 53 54 54 54 54 53 53 54 57 57 56 56 56 56 56 56 56 56 56 54 53 50 49 48 48 46 46 46 47 47 46 46 45 45 45 45 44 45 43 43 45
54 54 54 54 55 54 53 53 53 53 55 56 56 55 55 56 57 56 56 56 56 55 51 50 49 47 46 44 46 47 46 45 45 45 44 44 43 43 44 45 45 45
53 54 54 54 54 55 55 53 52 52 52 53 55 56 56 56 55 56 56 56 56 55 54 50 50 48 49 49 49 48 47 46 46 45 45 44 44 43 44 44 45 45
52 53 53 53 53 53 54 54 54 53 53 53 54 54 55 55 56 55 55 56 55 55 53 50 50 49 48 44 44 47 48 46 45 46 46 45 46 44 43 43 44 45
52 52 53 53 53 54 53 54 54 54 53 54 54 54 54 55 55 55 55 55 55 55 54 52 51 51 42 43 43 43 47 46 44 44 45 44 44 44 43 43 43 44
51 52 52 53 53 53 53 53 53 53 53 53 53 54 53 54 54 54 54 55 55 54 54 53 51 47 42 42 42 42 43 46 43 43 44 43 44 44 43 43 43 43
51 51 52 52 52 52 52 52 53 53 53 54 54 53 53 53 54 54 54 54 54 54 53 53 52 46 41 41 41 40 40 41 43 43 43 43 44 45 44 43 43 43
51 51 50 51 51 51 51 51 52 52 53 53 54 53 53 53 53 53 53 53 53 54 53 52 51 43 40 40 39 40 40 41 43 44 43 43 45 44 43 43 43 44
49 50 50 50 50 50 50 51 51 51 51 52 53 53 53 52 53 53 53 53 53 53 52 51 50 41 39 40 39 39 40 46 43 42 42 42 44 44 43 43 43 43
45 50 50 49 49 49 49 49 49 50 49 49 49 50 52 52 52 52 53 53 52 52 52 51 49 42 39 39 39 39 41 46 44 41 41 42 42 44 43 43 43 43
44 48 49 49 48 48 48 49 48 48 49 49 49 48 49 50 51 51 52 53 52 52 52 51 50 45 39 39 39 38 43 45 45 41 40 41 41 44 44 43 43 48
44 46 46 46 47 47 48 48 49 49 49 48 49 50 50 49 49 50 51 51 52 52 53 52 49 45 39 38 38 38 42 42 42 40 39 39 41 42 44 43 43 47
44 45 44 44 44 46 47 48 48 48 49 48 48 49 49 47 47 48 48 48 49 51 52 52 49 45 42 38 38 38 40 45 45 43 38 38 41 42 43 43 43 43